STARLINK-34260, 64334

Orbit data source: Space-Track

STARLINK-34260, 64334 is a payload satellite owned by SpaceX/Seattle (US) in LEO that was launched on Tue, 10 Jun 2025 UTC via an FALCON 9 launch vehicle from the Air Force Eastern Test Range (AFETR). Payload-class satellites include a variety of spacecraft equipped with specific instruments for various scientific and technological missions. These include communications satellites like Starlink; space stations such as the ISS; scientific satellites like the Hubble; Earth observation satellites from companies like Planet Labs, Umbra, and HawkEye 360; GPS; miniature CubeSats for education and research; and military/defense satellites.

Loading next visibility...
Identifier
64334, 2025-124T
Orbit
LEO
Last TLE update
14 hours ago
Origin
Manufacturer
SpaceX/Seattle
Mission
Operational spacecraft
Bus & Motor
STARLINK V2MO, Unknown motor
Mass
575 kg wet, ~530 kg dry
Launch date (UTC)
2025-06-10 (1 month ago)
Launch vehicle
FALCON 9
Launch site
Air Force Eastern Test Range (AFETR)
Object type
Payload
Rocket body
Debris
Shape & HBR
Unknown
Radar Cross Section
Large (>1 m²)

Expand to show TLE details & history

TLE from 14 hours ago
0 STARLINK-34260
1 64334U 25124T   25199.73841011  .00051904  00000-0  12400-2 0  9993
2 64334  43.0012   5.2765 0002857 272.2714  87.7815 15.40730653  5975
Epoch: 2025-07-18T17:43Z
TLE epoch observation values (Epoch: 2025-07-18T17:43:18.633Z)
Latitude
-0.00005°
Longitude
162.66325°
Altitude
443.651 km
Speed
7.648 km/s
True Right ascension
00h 21m 06s
True Declination
0° 00' 00"
Sunlit
Object was in full shadow at epoch
Visualization orbit readout
Latitude
-21.97281°
Longitude
133.85085°
Altitude
447.633 km
Speed
7.645 km/s
Apparent Right ascension
01h 44m 29s
Apparent Declination
-63° 43' 40"
Sunlit
Object is in full shadow
Visualization observer readout
Local Sidereal Time
20:23:49
Azimuth
149.359° SSE
Elevation
-31.158°
Doppler factor
1
Orbital elements
Apogee altitude
447.857 km
Perigee altitude
443.958 km
Semi-major axis
6,824.045 km
Eccentricity
0.00029
Inclination
43.0012°
RAAN
5.2765°
Arg. of periapsis
272.2714°
True anomaly
87.81421°
Mean anomaly
87.7815°
Eccentric anomaly
87.79786°
Mean motion
3.85017 °/min
Orbital period
93.5 mins
BSTAR
0.00124
Loading maneuver chart data...
Loading SW <> Apogee altitude chart data...
Loading historical data...
Loading historical data...
Loading historical data...
Loading historical data...
Loading historical data...
Loading historical data...
Loading historical data...
|